Location: Bremen
(53.0793°N, 8.8017°E)
Time: 00:12:20
(UTC+02:00)

Altair - Pass Details

Date: 17 April 2024
Orbit: 1501 x 1682 km, 47.2° (Epoch: 19 May)

Event Time Altitude Azimuth Distance (km) Brightness Sun altitude
Rises 20:42:37 0° 215° (SW) 4,908 10.3 -2.7°
Reaches altitude 10° 20:46:06 10° 208° (SSW) 3,907 9.7 -3.2°
Maximum altitude 20:54:53 37° 146° (SE) 2,352 8.1 -4.4°
Drops below altitude 10° 21:03:25 10° 84° (E) 3,802 9.1 -5.6°
Sets 21:06:45 0° 76° (ENE) 4,762 9.6 -6.0°
